sat.trackr.live / text

‹ back to catalog

STARLINK-31069

NORAD 58607 · 2023-200U

PAYLOAD ACTIVE UNKNOWN

§ Identity

Operator
Country
US
Launch date
2023-12-19
Launch site
AFETR
Launch vehicle
Mass (kg)
RCS (m²)

Purposes: comms

External: N2YO · Heavens-Above · Gunter

§ Orbital elements

Epoch: 2026-05-24T22:47:28.855392Z

Period
94.27 min
Inclination
43.0020°
Eccentricity
0.0001209
Mean motion
15.27578218 rev/d
Perigee alt
482.2 km
Apogee alt
483.9 km
Semi-major
6,861.2 km
B*
3.4968e-5
RAAN
98.1829°
Arg perigee
260.1640°
Mean anomaly
99.9075°
Rev number
13,527

§ Raw data

STARLINK-310691 58607U 23200U   26144.94963953  .00000700  00000+0  34968-4 0  99982 58607  43.0020  98.1829 0001209 260.1640  99.9075 15.27578218135278

JSON: /api/v1/satellites/58607 · /tle

For live sub-satellite position, see the globe view (requires WebGL).

§ Visibility from observer

Set your observer location to see the next 7 days of passes ≥ 10°. The values pass through the URL so the page stays shareable.

No JS? Fill the form by hand. The geolocation button needs JavaScript.